sat.trackr.live / text

‹ back to catalog

TIANSHI-01

NORAD 68415 · 2026-066D

PAYLOAD ACTIVE UNKNOWN

§ Identity

Operator
Country
PRC
Launch date
2026-03-30
Launch site
JSC
Launch vehicle
Mass (kg)
RCS (m²)

External: N2YO · Heavens-Above · Gunter

§ Orbital elements

Epoch: 2026-09-20T04:34:11.910432Z

Period
96.71 min
Inclination
84.9703°
Eccentricity
0.0023354
Mean motion
14.88972195 rev/d
Perigee alt
584.8 km
Apogee alt
617.4 km
Semi-major
6,979.3 km
B*
1.5810e-4
RAAN
167.2722°
Arg perigee
284.0894°
Mean anomaly
75.7734°
Rev number
2,586

§ Raw data

TIANSHI-011 68415U 26066D   26263.19041563  .00001522  00000+0  15810-3 0  99992 68415  84.9703 167.2722 0023354 284.0894  75.7734 14.88972195 25864

JSON: /api/v1/satellites/68415 · /tle

For live sub-satellite position, see the globe view (requires WebGL).

§ Visibility from observer

Set your observer location to see the next 7 days of passes ≥ 10°. The values pass through the URL so the page stays shareable.

No JS? Fill the form by hand. The geolocation button needs JavaScript.